Regional Weather Roundup
Issued by NWS Wakefield, VA

Home | Current Version | Previous Version | Text Only | Print | Product List | Glossary Off
Versions: 1 2 3 4 5 6 7 8 9 10 11 12 13 14 15 16 17 18 19 20 21 22 23 24 25 26 27 28 29 30 31 32 33 34 35 36 37 38 39 40 41 42 43 44 45 46 47 48 49 50

000
ASUS41 KAKQ 010810
RWRAKQ

REGIONAL WEATHER ROUNDUP
NATIONAL WEATHER SERVICE WAKEFIELD VA
400 AM EDT MON SEP 01 2014

Note: "fair" indicates few or no clouds below 12,000 feet with no
significant weather and/or obstructions to visibility. * = Denotes
station may not report precipitation (e.g., rain,snow,etc.),
thunder or fog.

VAZ042-051-052>054-056-010900-
NORTHERN VIRGINIA

CITY           SKY/WX    TMP DP  RH WIND       PRES   REMARKS
WASH NATIONAL  MOCLDY    77  71  82 S3        30.01F
DULLES         MOCLDY    72  71  97 CALM      30.02F
FORT BELVOIR   CLOUDY    74  72  96 CALM      30.02R
QUANTICO       CLOUDY    75  72  90 W3        30.02S
FREDERICKSBRG* CLOUDY    75  75 100 CALM      30.01F
STAFFORD*      CLOUDY    72  72 100 CALM      30.06S FOG
WARRENTON      CLOUDY    73  73 100 CALM      30.02S
CULPEPER*      CLOUDY   N/A N/A N/A CALM      30.03S
MANASSAS*      CLOUDY    73  72  94 CALM      30.01F
LEESBURG*      CLOUDY    72  72 100 CALM      30.03S
WINCHESTER     CLOUDY    72  70  94 CALM      30.03F
$$

VAZ048-049-060>072-079>083-010900-
CENTRAL AND SOUTH CENTRAL VIRGINIA...AND NORTH CENTRAL NORTH CAROLINA

CITY           SKY/WX    TMP DP  RH WIND       PRES   REMARKS
RICHMOND       MOCLDY    78  72  81 SW5       30.04S
CHESTERFIELD*  SUNNY    N/A N/A N/A SW3       30.05F
PETERSBURG*    CLEAR     74  72  93 S3        30.05F
HANOVER        PTCLDY    76  72  87 S3        30.05S
TAPPAHANNOCK*  PTCLDY    76  71  83 CALM      30.04S
CHARLOTTSVILLE CLOUDY    74  71  91 S3        30.04S
ORANGE*        CLOUDY    73  72  94 S3        30.04S
LOUISA*        MOCLDY    75  72  88 CALM      30.03S
FARMVILLE*     MOCLDY    73  73 100 SW3       30.03S
SOUTH HILL*      N/A     75  75 100 S3        30.11S
ROANOKE RAPIDS SUNNY     72  72 100 S5        30.07R
RALEIGH        PTCLDY    75  71  87 SW6       30.08S
$$

VAZ088>098-010900-
SOUTHEAST VIRGINIA

CITY           SKY/WX    TMP DP  RH WIND       PRES   REMARKS
NORFOLK        CLEAR     77  73  87 SW13      30.05S
VIRGINIA BEACH PTCLDY    77  74  90 SW12      30.05S
NORFOLK NAVAL  PTCLDY    78  74  87 S9        30.07S
WEST POINT*    CLEAR     80  73  79 CALM      30.05S
NEWPORT NEWS   CLEAR     81  73  76 SW12      30.05S
LANGLEY AFB    CLEAR     78  76  94 SW8       30.04S
FORT EUSTIS    CLEAR     77  77 100 S8        30.03S
WILLIAMSBURG*  CLEAR     79  73  83 SW6       30.05F
FRANKLIN*      CLEAR     75  73  94 S5        30.06S
WAKEFIELD      CLEAR     76  72  87 S3        30.05S
$$

VAZ020-022-025-037-045-010900-
WESTERN AND SOUTHWEST VIRGINIA

CITY           SKY/WX    TMP DP  RH WIND       PRES   REMARKS
STAUNTON*      CLOUDY    71  67  87 CALM      30.09S
HOT SPRINGS VA CLOUDY    65  61  88 W15       30.22S
LYNCHBURG      CLOUDY    71  70  96 S5        30.08S
DANVILLE       CLEAR     73  70  90 SW3       30.07R
MARTINSVILLE   MOCLDY    70  70 100 CALM      30.11R
ROANOKE        CLOUDY    75  69  81 W7        30.11S
BLACKSBURG     CLOUDY    70  70 100 CALM      30.16S
DUBLIN*        CLOUDY    71  71  98 CALM      30.16R
MARION*        MOCLDY   N/A N/A N/A W8        30.20S HAZE
HILLSVILLE*    MOCLDY    67  67  98 SW3       30.18S
RICHLANDS*     PTSUNNY   72  67  84 W3        30.17S
WISE*          PTCLDY    70  68  94 SW10      30.19R
ABINGDON*      MOCLDY    71  71 100 CALM      30.16S
$$

MDZ021>025-VAZ099-100-010900-
SOUTHERN MARYLAND AND THE DELMARVA PENINSULA

CITY           SKY/WX    TMP DP  RH WIND       PRES   REMARKS
PATUXENT RIVER MOCLDY    77  72  84 SW9       30.02S THUNDER
BAY BRIDGE APT   N/A     73  73 100 CALM      30.00F
LEONARDTOWN    MOCLDY    73  70  88 SW3       30.04S
DOVER          MOCLDY    73  73 100 W3        29.99F
GEORGETOWN     LGT RAIN  77  74  90 S8        30.01F
EASTON         CLOUDY    75  75 100 CALM      30.04F
CAMBRIDGE      MOCLDY    77  73  88 CALM      30.01S
SALISBURY      MOCLDY    79  74  84 SW6       30.02R
OCEAN CITY     PTCLDY    79  74  84 SW8       30.02S
WALLOPS ISLAND PTCLDY    78  74  87 W8        30.03S
ACCOMACK*      NOT AVBL
$$

NCZ012>017-030>032-010900-
EASTERN NORTH CAROLINA

CITY           SKY/WX    TMP DP  RH WIND       PRES   REMARKS
ELIZABETH CITY CLEAR     77  75  93 SW6       30.07F
AHOSKIE*       CLEAR     73  72  96 S3        30.07S
EDENTON*       PTCLDY    77  75  94 SW7       30.07F
CURRITUCK*     CLEAR     77  74  90 SW5       30.08R
KILL DEVIL HLS MOCLDY    78  75  91 SW6       30.07S
MANTEO         CLEAR     78  75  90 SW8       30.08S
CAPE HATTERAS  PTCLDY    79  76  90 SW13      30.09F
GOLDSBORO      PTCLDY    75  75  98 S3        30.06F
WASHINGTON     CLEAR     75  74  95 SW3       30.08S
GREENVILLE     PTCLDY    77  75  94 S7        30.09S
NEW BERN       LGT RAIN  76  72  87 CALM      30.10S
WILMINGTON     CLEAR     76  75  97 CALM      30.08F
$$

VAZ048-010900-
ELSEWHERE

CITY           SKY/WX    TMP DP  RH WIND       PRES   REMARKS
HARRISBURG PA  CLOUDY    72  70  93 NW5       30.01R
BALTIMORE      MOCLDY    73  72  96 CALM      30.00F
ANNAPOLIS      CLOUDY    75  72  90 CALM      29.99F
ANDREWS AFB    MOCLDY    73  72  99 SW3       30.01F
WILMINGTON DE  CLOUDY    74  72  93 CALM      30.02S
PHILADELPHIA   CLOUDY    74  72  93 SW5       30.00F
WILDWOOD NJ*   CLOUDY    73  70  88 CALM      30.02F
ATLANTIC CITY  MOCLDY    72  71  97 CALM      30.01S
HENDERSON NC   CLEAR     74  71  90 SW6       30.07S
GREENSBORO     PTCLDY    73  70  90 S5        30.09R
ROCKY MOUNT    PTCLDY    75  73  93 S5        30.07F
FAYETTEVILLE   PTCLDY    76  74  93 SW3       30.08R
CHARLOTTE      CLOUDY    73  69  87 S3        30.10S
$$

VAZ100-010900-
MARINE

STATION/POSITION TIME  TEMP    WIND        PRES    WAVE   SWELL
                       AIR SEA DIR/SP/G            HT/PER HT/PER
                 (UTC) (F)     (DEG/KT/KT) (MB)    (FT/S) (FT/S)
44066 TX TWR #4  0800   74 73  240/ 10/ 14 1016.6F   5/ 5   3/ 5
CAPE MAY NJ      0800   76 80  330/  2/  3 1015.9S
LEWES DE         0800   76 76  300/  5/  6 1015.9R
15NM E FENWICK I 0800   76 74              1016.1S   5/ 5
OCEAN-CITY-INLET 0800   79 77  240/  9/ 12 1015.9S
WACHAPREAGUE VA  0800   78 82  230/  7/  9 1016.9F
THOMAS POINT MD  0800   76 78  260/  4/  4 1016.8F
GOOSES REEF MD   0800   77     230/  6/  8 1016.6F
COVE POINT MD    0800   77     250/  5/  7 1016.2S
SOLOMONS ISLAND  0800      80                N/A
BISHOPS HEAD MD  0800   80 80  250/ 11/ 13 1016.2R
PINEY POINT MD   0800          260/ 12/ 17   N/A
POTOMAC MD       0800   79     250/ 10/ 12 1015.9S
CAMBRIDGE MD     0800   75 78  270/  2/  2 1015.9S
LEWISETTA VA     0800   78 79  260/ 10/ 11 1016.6R
RAPPAHANNOCK LGT 0800          200/ 14/ 16 1017.4R
STINGRAY PT      0800   80     230/ 16/ 17   N/A
YORK RVR RNG VA  0800   79     250/ 14/ 16 1016.7S
YORKTOWN VA      0800   78 80  220/ 12/ 16 1016.7F
JAMESTOWN VA     0800   77     220/ 12/ 14   N/A
DOMINION TERM VA 0800   78     220/ 13/ 15 1017.5R
KIPTOPEKE VA     0800      83  230/ 15/ 16   N/A
CHES BAY BRIDGE  0800   78 80  200/ 14/ 17 1016.9R
CAPE HENRY VA    0800   78     200/ 10/ 14 1016.3S
CHESAPEAKE LGHT  0700   78     210/ 17/ 19 1018.2F
WILLOUBY STN VA  0800   78     220/ 13/ 15 1016.3S
S CRANEY ISL VA  0800          200/  7/ 10 1017.4R
CAPE HENRY BUOY  0800      78                N/A     3/ 9
1ST LANDING BUOY 0800   79     230/ 16/ 17 1017.1S
CAPE CHARLES BUO 0800      79                N/A     3/ 9   2/ 9
OFFSHORE WE BUOY 0800      76                N/A     3/10   2/10
64NM E OF VA BCH 0800   78 77  200/ 12/ 14 1017.9F   3/ 9   2/ 9
DUCK PIER NC     0800   79 75  200/  8/ 11 1017.5S
44056 DUCK FRF   0800                        N/A     2/ 9
OREGON INLET NC  0800   81 83  190/ 15/ 16 1018.4F
HATTERAS NC      0800   81 84  210/ 10/ 14 1019.4F
DIAMOND SHLS NC  0800   81     200/ 16/ 19 1018.6F   4/ 9   3/ 9
CAPE LOOKOUT NC  0700   81     200/  8/ 11 1019.0F
$$


USA.gov is the U.S. government's official web portal to all federal, state and local government web resources and services.